This is the latest recevied weather packets stored in our database for station/object KA1AL. If no packets are shown the sender has not sent any weather packets the latest 1 day(s).
| Time | Temp. | Humidity | Pressure | Rain* | Wind** | Luminosity | Snow |
|---|---|---|---|---|---|---|---|
| 1777978138 | 8.89° C | 87% | 1006.6 hPa | 0 mm | 1.34 m/s, 203° | 80 W/m² | - |
| 1777977835 | 8.89° C | 86% | 1006.6 hPa | 0 mm | 1.34 m/s, 211° | 75 W/m² | - |
| 1777977531 | 8.33° C | 87% | 1006.4 hPa | 0 mm | 0.89 m/s, 213° | 71 W/m² | - |
| 1777977229 | 8.33° C | 87% | 1006.5 hPa | 0 mm | 0.45 m/s, 181° | 65 W/m² | - |
| 1777976926 | 7.78° C | 88% | 1006.5 hPa | 0 mm | 0 m/s | 56 W/m² | - |
| 1777976623 | 7.78° C | 88% | 1006.3 hPa | 0 mm | 0.89 m/s, 195° | 49 W/m² | - |
| 1777976319 | 7.78° C | 88% | 1006.5 hPa | 0 mm | 0.89 m/s, 196° | 42 W/m² | - |
| 1777976014 | 7.78° C | 89% | 1006.6 hPa | 0 mm | 0.89 m/s, 225° | 38 W/m² | - |
| 1777975710 | 7.78° C | 89% | 1006.7 hPa | 0 mm | 0.89 m/s, 211° | 32 W/m² | - |
| 1777975407 | 7.78° C | 89% | 1006.4 hPa | 0 mm | 1.34 m/s, 242° | 24 W/m² | - |
| 1777975102 | 7.78° C | 89% | 1006.4 hPa | 0 mm | 0.89 m/s, 217° | 19 W/m² | - |
| 1777974800 | 7.22° C | 90% | 1006.4 hPa | 0 mm | 0.89 m/s, 185° | 17 W/m² | - |
| 1777974496 | 7.22° C | 90% | 1006.5 hPa | 0 mm | 0.45 m/s, 209° | 14 W/m² | - |
| 1777974193 | 7.78° C | 90% | 1006.2 hPa | 0 mm | 1.34 m/s, 209° | 10 W/m² | - |
| 1777973889 | 7.78° C | 89% | 1006.6 hPa | 0 mm | 1.34 m/s, 196° | 6 W/m² | - |
| 1777973587 | 7.78° C | 89% | 1006.4 hPa | 0 mm | 1.34 m/s, 225° | 4 W/m² | - |
| 1777973283 | 7.22° C | 90% | 1006.3 hPa | 0 mm | 0.89 m/s, 209° | 2 W/m² | - |
| 1777972982 | 7.22° C | 91% | 1006.2 hPa | 0 mm | 0 m/s | 1 W/m² | - |
| 1777972679 | 7.22° C | 90% | 1006.3 hPa | 0 mm | 0.45 m/s, 190° | 0 W/m² | - |
| 1777972376 | 7.22° C | 90% | 1006.3 hPa | 0 mm | 0.45 m/s, 212° | 0 W/m² | - |
| 1777972074 | 7.22° C | 91% | 1006.3 hPa | 0 mm | 1.34 m/s, 241° | 0 W/m² | - |
| 1777971772 | 7.22° C | 91% | 1006.3 hPa | 0 mm | 1.34 m/s, 201° | 0 W/m² | - |
| 1777971469 | 7.22° C | 91% | 1006.7 hPa | 0 mm | 1.34 m/s, 217° | 0 W/m² | - |
| 1777971167 | 7.22° C | 91% | 1006.3 hPa | 0 mm | 0.45 m/s, 241° | 0 W/m² | - |
| 1777970864 | 7.22° C | 91% | 1006.3 hPa | 0 mm | 0.89 m/s, 188° | 0 W/m² | - |
* Rain latest hour (hover to see other rain measurements)
** Current wind speed in m/s (hover to see current wind gust speed)